CAPE
15 14 32 60 78 57 4 0 0 29 1 7 0 1 0 0 0 0 0 0 0 0 0 0 0 0 0 0 0 0 0 0 0 0 0 0 0 0 0 0 0 0 0 0 0 0 0 0 0 0 0 0 0 0
16 17 31 54 54 58 19 0 0 44 3 11 0 0 0 0 0 0 0 0 0 0 0 0 0 0 0 0 0 0 0 0 0 0 0 0 0 0 0 0 0 0 0 0 0 0 0 0 0 0 0 0 0 0
11 23 21 27 58 58 30 0 5 37 19 11 4 0 0 0 0 0 0 0 0 0 0 0 0 0 0 0 0 0 0 0 0 0 0 0 0 0 0 0 0 0 0 0 0 0 0 0 0 0 0 0 0 0
6 23 19 69 51 49 31 0 3 20 12 14 3 0 0 0 0 0 0 0 0 0 0 0 0 0 0 0 0 0 0 0 0 0 0 0 0 0 0 0 0 0 0 0 0 0 0 0 0 0 0 0 0 0
14 20 24 35 58 55 58 5 3 27 45 7 6 0 0 0 0 0 0 0 0 0 0 0 0 0 0 0 0 0 0 0 0 0 0 0 0 0 0 0 0 0 0 0 0 0 0 0 0 0 0 0 0 0
15 16 14 4 13 43 28 0 3 18 37 3 5 0 0 0 0 0 0 0 0 0 0 0 0 0 0 0 0 0 0 0 0 0 0 0 0 0 0 0 0 0 0 0 0 0 0 0 0 0 0 0 0 0
16 11 3 0 5 21 18 0 0 0 26 0 1 0 0 0 0 0 0 0 0 0 0 0 0 0 0 0 0 0 0 0 0 0 0 0 0 0 0 0 0 0 0 0 0 0 0 0 0 0 0 0 0 0
27 13 6 10 43 29 2 0 0 22 4 0 0 0 0 0 0 0 0 0 0 0 0 0 0 0 0 0 0 0 0 0 0 0 0 0 0 0 0 0 0 0 0 0 0 0 0 0 0 0 0 0 0 0
38 19 27 41 40 9 11 2 0 4 0 0 0 0 0 0 0 0 0 0 0 0 0 0 0 0 0 0 0 0 0 0 0 0 0 0 0 0 0 0 0 0 0 0 0 0 0 0 0 0 0 0 0 0
40 34 36 52 17 26 5 0 3 1 0 0 0 0 0 0 0 0 0 0 0 0 0 0 0 0 0 0 0 0 0 0 0 0 0 0 0 0 0 0 0 0 0 0 0 0 0 0 0 0 0 0 0 0
28 38 21 23 5 26 0 11 3 0 0 0 0 0 0 0 0 0 0 0 0 0 0 0 0 0 0 0 0 0 0 0 0 0 0 0 0 0 0 0 0 0 0 0 0 0 0 0 0 0 0 0 0 0
74 43 30 14 2 18 36 1 1 0 0 0 0 0 0 0 0 0 0 0 0 0 0 0 0 0 0 0 0 0 0 0 0 0 0 0 0 0 0 0 0 0 0 0 0 0 0 0 0 0 0 0 0 0
77 59 7 0 0 0 51 1 0 0 0 0 0 0 0 0 0 0 0 0 0 0 0 0 0 0 0 0 0 0 0 0 0 0 0 0 0 0 0 0 0 0 0 0 0 0 0 0 0 0 0 0 0 0
68 40 7 16 0 2 2 0 0 0 0 0 0 0 0 0 0 0 0 0 0 0 0 0 0 0 0 0 0 0 0 0 0 0 0 0 0 0 0 0 0 0 0 0 0 0 0 0 0 0 0 0 0 0
58 38 10 19 4 11 0 0 0 0 0 0 0 0 0 0 0 0 0 0 0 0 0 0 0 0 0 0 0 0 0 0 0 0 0 0 0 0 0 0 0 0 0 0 0 0 0 0 0 0 0 0 0 0
67 59 5 1 7 3 4 0 0 0 0 0 0 0 0 0 0 0 0 0 0 0 0 0 0 0 0 0 0 0 0 0 0 0 0 0 0 0 0 0 0 0 0 0 0 0 0 0 0 0 0 0 0 0
51 1 0 0 4 4 0 1 0 0 0 0 0 0 0 0 0 0 0 0 0 0 0 0 0 0 0 0 0 0 0 0 0 0 0 0 0 0 0 0 0 0 0 0 0 0 0 0 0 0 0 0 0 0
0 0 1 9 2 5 0 1 0 0 0 0 0 0 0 0 0 0 0 0 0 0 0 0 0 0 0 0 0 0 0 0 0 0 0 0 0 0 0 0 0 0 0 0 0 0 0 0 0 0 0 0 0 0
0 1 11 1 0 0 0 0 0 0 0 0 0 0 0 0 0 0 0 0 0 0 0 0 0 0 0 0 0 0 0 0 0 0 0 0 0 0 0 0 0 0 0 0 0 0 0 0 0 0 0 0 0 0
10 0 3 0 0 0 0 0 1 0 0 0 0 0 0 0 0 0 0 0 0 0 0 0 0 0 0 0 0 0 0 0 0 0 0 0 0 0 0 0 0 0 0 0 0 0 0 0 0 0 0 0 0 0
4 9 2 0 0 1 0 0 0 0 0 0 0 0 0 0 0 0 0 0 0 0 0 0 0 0 0 0 0 0 0 0 0 0 0 0 0 0 0 0 0 0 0 0 0 0 0 0 0 0 0 0 0 0
4 3 1 1 0 0 0 0 0 0 0 0 0 0 0 0 0 0 0 0 0 0 0 0 0 0 0 0 0 0 0 0 0 0 0 0 0 0 0 0 0 0 0 0 0 0 0 0 0 0 0 0 0 0
0 0 1 0 0 0 0 0 0 0 0 0 0 0 0 0 0 0 0 0 0 0 0 0 0 0 0 0 0 0 0 0 0 0 0 0 0 0 0 0 0 0 0 0 0 0 0 0 0 0 0 0 0 0
0 0 0 0 0 0 0 0 0 0 0 0 0 0 0 0 0 0 0 0 0 0 0 0 0 0 0 0 0 0 0 0 0 0 0 0 0 0 0 0 0 0 0 0 0 0 0 0 0 0 0 0 0 0
0 0 0 0 0 0 0 0 0 0 0 0 0 0 0 0 0 0 0 0 0 0 0 0 0 0 0 0 0 0 0 0 0 0 0 0 0 0 0 0 0 0 0 0 0 0 0 0 0 0 0 0 0 1
0 0 0 0 0 0 0 0 0 0 0 0 0 0 0 0 0 0 0 0 0 0 0 0 0 0 0 0 0 0 0 0 0 0 0 0 0 0 0 0 0 0 0 0 0 0 0 0 0 0 0 0 0 0
0 0 0 0 0 0 0 0 0 0 0 0 0 0 0 0 0 0 0 0 0 0 0 0 0 0 0 0 0 0 0 0 0 0 0 0 0 0 0 0 0 0 0 0 0 0 0 0 0 0 0 0 0 0
0 0 0 0 0 0 0 0 0 0 0 0 0 0 0 0 0 0 0 0 0 0 0 0 0 0 0 0 0 0 0 0 0 0 0 0 0 0 0 0 0 0 0 0 0 0 0 0 1 0 0 0 0 0
0 0 0 0 0 0 0 0 0 0 0 0 0 0 0 0 0 0 0 0 0 0 0 0 0 0 0 0 0 0 0 0 0 0 0 0 0 0 0 0 0 0 0 0 0 0 0 0 0 1 0 0 0 0
0 0 0 0 0 0 0 0 0 0 0 0 0 0 0 0 0 0 0 0 0 0 0 0 0 0 0 0 0 0 0 0 0 0 0 0 0 0 0 0 0 0 0 0 0 0 0 0 0 0 0 0 0 0
0 0 0 0 0 0 0 0 0 0 0 0 0 0 0 0 0 0 0 0 0 0 0 0 0 0 0 0 0 0 0 0 0 0 0 0 0 0 0 0 0 0 0 0 0 0 0 0 0 0 0 0 0 0
0 0 0 0 0 0 0 0 0 0 0 0 0 0 0 0 0 0 0 0 0 0 0 0 0 0 0 0 0 0 0 0 0 0 0 0 0 0 0 0 0 0 0 0 0 0 0 0 0 0 0 0 0 0
1 0 0 0 0 0 0 0 0 0 0 0 0 0 0 0 0 0 0 0 0 0 0 0 0 0 0 0 0 0 0 0 0 0 0 0 0 0 0 0 0 0 0 0 0 0 0 0 0 0 0 0 0 0
CIN
0 0 0 0 0 -12 -19 0 0 -1 -3 -1 0 0 0 0 0 0 0 0 0 0 0 0 0 0 0 0 0 0 0 0 0 0 0 0 0 0 0 0 0 0 0 0 0 0 0 0 0 0 0 0 0 0
0 0 0 0 0 0 -8 0 0 0 -4 -1 -3 0 0 0 0 0 0 0 0 0 0 0 0 0 0 0 0 0 0 0 0 0 0 0 0 0 0 0 0 0 0 0 0 0 0 0 0 0 0 0 0 0
0 0 0 0 0 0 -7 0 -7 -1 -2 -1 -11 0 0 0 0 0 0 0 0 0 0 0 0 0 0 0 0 0 0 0 0 0 0 0 0 0 0 0 0 0 0 0 0 0 0 0 0 0 0 0 0 0
0 0 0 0 0 0 -19 0 0 -1 -4 -2 -14 0 0 0 0 0 0 0 0 0 0 0 0 0 0 0 0 0 0 0 0 0 0 0 0 0 0 0 0 0 0 0 0 0 0 0 0 0 0 0 0 0
0 -1 0 -2 0 -1 -3 -27 -1 -5 0 -3 -18 0 0 0 0 0 0 0 0 0 0 0 0 0 0 0 0 0 0 0 0 0 0 0 0 0 0 0 0 0 0 0 0 0 0 0 0 0 0 0 0 0
0 0 -1 -1 -2 0 -4 0 -2 -4 0 0 -23 0 0 0 0 0 0 0 0 0 0 0 0 0 0 0 0 0 0 0 0 0 0 0 0 0 0 0 0 0 0 0 0 0 0 0 0 0 0 0 0 0
0 -1 -1 0 0 -2 -3 0 0 -3 0 -5 -16 0 0 0 0 0 0 0 0 0 0 0 0 0 0 0 0 0 0 0 0 0 0 0 0 0 0 0 0 0 0 0 0 0 0 0 0 0 0 0 0 0
-1 -1 -1 -5 0 -1 -2 0 0 0 -1 0 0 0 0 0 0 0 0 0 0 0 0 0 0 0 0 0 0 0 0 0 0 0 0 0 0 0 0 0 0 0 0 0 0 0 0 0 0 0 0 0 0 0
0 -1 0 0 0 -1 -5 -8 0 0 0 0 0 0 0 0 0 0 0 0 0 0 0 0 0 0 0 0 0 0 0 0 0 0 0 0 0 0 0 0 0 0 0 0 0 0 0 0 0 0 0 0 0 0
-1 -1 -1 0 -2 -4 -13 0 -6 -8 0 0 0 0 0 0 0 0 0 0 0 0 0 0 0 0 0 0 0 0 0 0 0 0 0 0 0 0 0 0 0 0 0 0 0 0 0 0 0 0 0 0 0 0
-1 -3 -6 -3 -21 -19 0 -1 0 0 0 0 0 0 0 0 0 0 0 0 0 0 0 0 0 0 0 0 0 0 0 0 0 0 0 0 0 0 0 0 0 0 0 0 0 0 0 0 0 0 0 0 0 0
0 -2 -2 -19 -116 -4 -4 0 0 0 0 0 0 0 0 0 0 0 0 0 0 0 0 0 0 0 0 0 0 0 0 0 0 0 0 0 0 0 0 0 0 0 0 0 0 0 0 0 0 0 0 0 0 0
0 0 -18 0 0 0 -2 0 0 0 0 0 0 0 0 0 0 0 0 0 0 0 0 0 0 0 0 0 0 0 0 0 0 0 0 0 0 0 0 0 0 0 0 0 0 0 0 0 0 0 0 0 0 0
-1 -2 -25 -38 -1 0 0 0 0 0 0 0 0 0 0 0 0 0 0 0 0 0 0 0 0 0 0 0 0 0 0 0 0 0 0 0 0 0 0 0 0 0 0 0 0 0 0 0 0 0 0 0 0 0
-2 -4 -5 -7 -5 0 0 0 0 0 0 0 0 0 0 0 0 0 0 0 0 0 0 0 0 0 0 0 0 0 0 0 0 0 0 0 0 0 0 0 0 0 0 0 0 0 0 0 0 0 0 0 0 0
-2 -1 0 -5 -11 0 0 0 0 0 0 0 0 0 0 0 0 0 0 0 0 0 0 0 0 0 0 0 0 0 0 0 0 0 0 0 0 0 0 0 0 0 0 0 0 0 0 0 0 0 0 0 0 0
-1 0 0 0 0 0 -2 -1 -1 0 0 0 0 0 0 0 0 0 0 0 0 0 0 0 0 0 0 0 0 0 0 0 0 0 0 0 0 0 0 0 0 0 0 0 0 0 0 0 0 0 0 0 0 0
0 0 -5 0 0 0 0 0 0 0 0 0 0 0 0 0 0 0 0 0 0 0 0 0 0 0 0 0 0 0 0 0 0 0 0 0 0 0 0 0 0 0 0 0 0 0 0 0 0 0 0 0 0 0
0 -6 -3 0 0 0 0 0 0 0 0 0 0 0 0 0 0 0 0 0 0 0 0 0 0 0 0 0 0 0 0 0 0 0 0 0 0 0 0 0 0 0 0 0 0 0 0 0 0 0 0 0 0 0
-1 0 0 0 0 0 0 0 0 0 0 0 0 0 0 0 0 0 0 0 0 0 0 0 0 0 0 0 0 0 0 0 0 0 0 0 0 0 0 0 0 0 0 0 0 0 0 0 0 0 0 0 0 0
0 0 -1 0 0 0 0 0 0 0 0 0 0 0 0 0 0 0 0 0 0 0 0 0 0 0 0 0 0 0 0 0 0 0 0 0 0 0 0 0 0 0 0 0 0 0 0 0 0 0 0 0 0 0
0 -1 0 0 0 0 0 0 0 0 0 0 0 0 0 0 0 0 0 0 0 0 0 0 0 0 0 0 0 0 0 0 0 0 0 0 0 0 0 0 0 0 0 0 0 0 0 0 0 0 0 0 0 0
0 0 0 0 0 0 0 0 0 0 0 0 0 0 0 0 0 0 0 0 0 0 0 0 0 0 0 0 0 0 0 0 0 0 0 0 0 0 0 0 0 0 0 0 0 0 0 0 0 0 0 0 0 0
0 0 0 0 0 0 0 0 0 0 0 0 0 0 0 0 0 0 0 0 0 0 0 0 0 0 0 0 0 0 0 0 0 0 0 0 0 0 0 0 0 0 0 0 0 0 0 0 0 0 0 0 -3 -4
0 0 0 0 0 0 0 0 0 0 0 0 0 0 0 0 0 0 0 0 0 0 0 0 0 0 0 0 0 0 0 0 0 0 0 0 0 0 0 0 0 0 0 0 0 0 0 0 0 0 0 0 -1 -4
0 0 0 0 0 0 0 0 0 0 0 0 0 0 0 0 0 0 0 0 0 0 0 0 0 0 0 0 0 0 0 0 0 0 0 0 0 0 0 0 0 0 0 0 0 0 0 0 -2 0 0 0 0 0
0 0 0 0 0 0 0 0 0 0 0 0 0 0 0 0 0 0 0 0 0 0 0 0 0 0 0 0 0 0 0 0 0 0 0 0 0 0 0 0 0 0 0 0 0 0 0 0 0 -2 0 -2 0 0
0 0 0 0 0 0 0 0 0 0 0 0 0 0 0 0 0 0 0 0 0 0 0 0 0 0 0 0 0 0 0 0 0 0 0 0 0 0 0 0 0 0 0 0 0 0 0 0 -4 -1 0 0 0 0
0 0 0 0 0 0 0 0 0 0 0 0 0 0 0 0 0 0 0 0 0 0 0 0 0 0 0 0 0 0 0 0 0 0 0 0 0 0 0 0 0 0 0 0 0 0 -1 -5 -9 -12 0 0 0 0
0 0 0 0 0 0 0 0 0 0 0 0 0 0 0 0 0 0 0 0 0 0 0 0 0 0 0 0 0 0 0 0 0 0 0 0 0 0 0 0 0 0 0 0 0 0 0 0 0 0 0 0 0 -2
0 0 0 0 0 0 0 0 0 0 0 0 0 0 0 0 0 0 0 0 0 0 0 0 0 0 0 0 0 0 0 0 0 0 0 0 0 0 0 0 0 0 0 0 0 0 0 0 0 -2 0 0 0 0
0 0 0 0 0 0 0 0 0 0 0 0 0 0 0 0 0 0 0 0 0 0 0 0 0 0 0 0 0 0 0 0 0 0 0 0 0 0 0 0 0 0 0 0 0 0 0 0 0 0 0 0 0 0
0 0 0 0 0 0 0 0 0 0 0 0 0 0 0 0 0 0 0 0 0 0 0 0 0 0 0 0 0 0 0 0 0 0 0 0 0 0 0 0 0 0 0 0 0 0 0 0 0 0 0 0 0 -2
Wind_Speed
26 34 46 49 49 47 44 48 46 43 40 38 35 33 30 28 26 26 25 23 22 17 15 15 13 9 9 7 9 7 9 12 11 11 13 14 14 13 16 15 14 11 11 12 14 14 15 11 13 13 17 18 16 18
25 33 47 48 50 49 45 44 46 48 42 39 36 34 31 29 24 25 25 22 18 17 14 14 12 12 13 12 9 4 13 10 7 10 10 12 8 10 7 7 8 9 9 8 6 9 12 7 14 16 16 16 17 18
27 37 46 49 49 51 46 45 50 50 45 40 38 35 33 30 27 25 22 17 17 16 16 14 15 15 15 16 14 7 12 9 9 13 8 10 14 11 13 11 9 6 6 6 12 12 11 13 16 17 17 18 18 19
29 45 47 47 49 50 46 46 47 50 51 41 38 36 34 32 27 24 21 19 18 15 21 20 17 16 19 18 13 13 12 12 10 15 17 17 15 12 8 6 5 6 8 8 9 13 18 18 15 16 17 17 18 18
34 48 49 48 49 51 48 46 46 51 48 40 37 36 34 32 25 22 21 22 20 20 22 20 16 18 18 15 13 12 9 15 22 16 5 10 7 6 8 8 3 2 7 11 15 18 20 21 13 13 15 16 17 19
44 49 49 49 50 51 48 46 46 50 50 39 36 34 33 28 23 21 26 26 21 16 21 23 18 18 17 14 13 14 15 18 20 19 12 13 12 6 6 7 12 7 12 15 21 19 19 21 13 13 14 16 17 19
48 49 48 48 50 50 47 47 50 52 50 37 33 33 31 28 27 28 26 21 16 16 23 24 25 21 19 19 19 19 18 18 18 16 15 12 11 9 9 13 18 15 14 16 16 17 19 15 16 12 15 15 17 18
47 48 48 48 50 50 46 47 49 53 39 33 28 28 27 25 21 25 19 13 15 17 21 24 24 20 19 19 19 20 19 19 19 15 16 11 12 13 13 14 17 16 14 14 12 16 17 14 16 14 14 15 18 20
46 47 47 48 49 48 46 49 53 41 34 31 25 22 23 27 28 24 13 11 13 20 26 25 22 21 18 18 17 17 18 16 20 14 15 16 12 12 15 16 13 11 13 15 10 14 16 15 14 14 14 16 19 20
46 46 46 47 48 47 47 46 37 36 33 29 26 30 32 27 16 15 21 23 23 26 24 25 20 19 17 17 15 14 17 15 15 15 17 16 18 18 18 15 14 10 11 11 12 13 14 16 15 14 15 18 18 21
44 45 46 46 48 45 45 39 31 34 34 32 34 31 23 20 20 24 27 29 28 28 27 24 21 16 17 15 13 16 15 15 16 16 16 19 21 20 17 9 9 10 9 9 12 13 12 15 16 15 18 19 21 24
43 44 44 45 47 45 42 33 30 37 37 35 26 20 21 23 24 29 31 29 28 31 24 23 20 16 15 15 15 16 17 17 18 16 19 21 21 16 13 12 11 7 8 7 10 13 15 14 16 18 21 20 22 26
43 43 43 44 47 47 52 37 34 35 29 28 26 28 28 29 34 37 38 33 29 22 19 15 15 15 15 16 16 17 18 18 15 19 21 20 18 12 10 12 12 11 11 12 12 14 15 17 18 19 20 22 25 27
43 42 40 38 42 45 42 34 34 36 33 32 32 37 34 38 37 33 34 28 23 16 8 8 12 15 15 16 16 17 17 16 19 21 21 19 10 8 9 10 10 11 13 15 16 16 18 18 20 20 22 24 25 26
42 42 37 36 34 44 40 31 34 37 35 33 30 39 40 32 28 23 21 19 20 13 10 11 12 13 14 15 16 15 17 19 17 20 17 12 7 8 9 10 11 13 15 16 17 19 20 21 23 24 24 24 25 25
39 36 37 37 36 40 36 29 32 35 31 33 30 31 31 29 27 24 22 17 14 13 12 13 14 16 18 14 16 16 15 19 19 14 12 8 7 8 9 10 13 15 16 18 20 22 23 24 24 23 23 23 23 23
35 36 35 39 40 39 33 30 31 32 33 34 36 29 29 29 26 24 21 21 17 14 15 14 17 19 12 18 18 14 19 18 14 11 8 5 6 8 10 12 14 16 18 21 22 23 23 24 22 22 23 22 22 21
37 37 37 36 40 35 29 29 28 31 36 36 37 29 26 24 20 19 18 17 17 17 13 17 11 18 19 19 20 17 12 13 11 7 4 5 7 9 13 13 16 19 21 22 22 23 23 22 22 22 20 20 20 20
37 39 40 46 44 35 27 28 28 34 35 33 30 25 24 23 21 18 16 17 16 13 7 14 18 20 20 18 15 11 7 8 7 5 5 6 9 12 14 14 18 19 20 21 21 21 22 21 20 20 19 19 20 22
34 43 47 42 38 31 28 27 29 31 34 33 31 29 22 23 21 17 17 18 16 14 19 19 18 16 14 11 9 6 4 4 4 5 6 9 11 13 14 15 17 18 19 19 21 21 20 20 20 20 19 19 22 24
41 43 34 33 30 26 25 29 30 29 29 31 30 30 25 21 22 22 22 20 20 21 19 17 15 12 12 11 8 3 3 4 5 7 9 12 14 13 14 14 16 18 19 19 21 20 19 20 20 20 20 22 24 25
38 37 34 28 27 22 23 26 28 26 30 31 28 27 26 25 25 26 23 25 26 22 16 14 12 9 8 7 3 2 2 5 8 11 13 14 13 13 13 15 17 18 18 19 18 19 19 20 21 22 23 25 25 25
33 35 31 28 28 25 26 24 29 29 30 33 27 27 27 26 27 24 28 28 26 19 12 11 10 8 7 6 4 5 4 7 10 12 13 12 11 12 14 15 15 17 18 17 17 17 18 20 22 24 24 24 24 24
32 32 31 30 27 27 28 29 28 28 28 30 30 28 27 25 24 27 30 27 23 16 11 11 9 8 9 7 6 6 8 9 11 12 11 10 11 13 14 14 15 15 16 16 16 16 17 20 21 23 23 22 22 20
35 34 29 29 27 30 31 32 31 29 33 28 27 27 26 24 28 30 30 28 21 15 12 11 10 8 8 7 8 8 8 8 9 8 8 8 11 13 13 14 14 15 14 14 14 15 18 19 20 21 19 19 17 15
34 28 30 30 32 32 30 33 33 30 29 27 26 20 21 24 28 30 30 25 21 15 12 10 9 8 9 9 7 7 6 5 6 7 8 7 7 9 10 12 13 14 11 12 13 16 18 19 19 19 17 18 18 16
33 31 30 27 28 28 26 24 25 28 28 28 27 23 22 25 30 25 20 19 20 17 11 8 7 6 5 5 7 5 3 1 4 7 9 8 8 10 11 11 12 12 9 11 12 14 16 18 19 19 19 22 22 21
27 29 34 32 29 28 27 28 28 30 29 25 23 26 23 24 23 19 17 13 11 7 5 3 3 3 4 3 2 2 2 3 6 9 10 12 13 12 12 12 11 11 11 12 13 15 16 17 18 18 19 22 22 22
26 27 28 29 27 25 27 27 26 25 23 25 24 23 21 19 16 13 10 7 4 2 2 1 1 1 1 3 3 2 4 3 4 6 7 10 11 11 10 9 10 11 12 13 14 15 17 17 18 17 19 20 20 21
27 25 25 25 27 27 26 23 22 20 18 18 16 16 15 13 13 11 5 3 3 4 3 4 5 5 6 7 4 1 0 2 5 7 8 9 10 8 5 6 8 9 11 13 14 17 18 18 18 18 20 21 21 21
22 22 22 21 21 20 17 14 13 12 13 13 12 13 14 11 10 9 6 5 3 3 4 4 4 4 5 3 3 1 1 3 5 8 9 11 9 6 4 5 7 8 10 12 13 16 17 17 17 18 19 20 21 21
21 22 21 21 19 16 13 13 13 11 11 11 11 10 10 8 8 9 9 6 4 4 3 4 4 3 0 3 3 6 9 6 3 4 6 7 7 5 5 5 6 7 10 12 13 16 16 16 16 17 18 19 20 21
14 14 15 15 16 17 15 13 12 11 10 10 10 10 10 9 10 9 11 11 8 6 5 4 6 9 5 4 5 7 9 8 4 3 4 4 4 5 5 5 6 7 8 11 13 14 15 15 16 16 16 18 19 20
Wind_Direction
290 288 270 255 249 246 244 246 247 243 242 241 240 242 243 241 235 234 242 244 249 265 276 277 285 301 308 322 335 353 348 329 331 332 332 335 337 342 341 346 359 9 18 18 17 14 13 51 30 5 359 358 358 352
285 285 264 255 247 243 240 244 240 237 238 238 236 238 238 238 234 232 241 244 253 264 281 287 298 305 307 314 334 2 328 349 7 354 354 357 32 22 58 144 101 145 129 88 73 34 23 28 360 352 351 350 349 347
281 277 262 254 248 237 235 241 239 236 235 235 233 235 235 235 231 233 240 236 248 259 273 282 283 298 309 308 314 353 322 342 344 333 51 119 182 135 167 171 139 111 81 36 10 0 346 343 343 343 345 346 350 350
277 266 256 251 245 236 236 240 238 232 229 231 231 232 233 233 231 233 240 238 247 262 259 268 286 290 296 302 314 315 320 317 330 300 182 183 177 150 129 86 78 47 40 4 340 338 341 339 339 343 347 350 351 353
274 257 251 248 242 232 233 236 234 228 228 229 228 229 231 232 230 235 244 243 250 254 254 263 279 291 297 307 315 316 319 284 254 203 163 145 91 60 18 10 356 24 347 339 334 342 341 343 343 346 344 347 352 353
264 251 247 245 241 232 233 234 231 226 225 224 225 226 228 227 223 232 242 247 245 256 258 255 276 277 285 301 306 297 291 279 278 290 327 329 340 16 14 354 346 343 337 336 337 342 341 344 354 353 351 353 355 354
254 246 245 242 238 230 232 232 227 223 221 219 221 224 225 222 227 233 245 250 232 253 254 255 258 269 277 282 279 279 286 289 296 308 314 328 334 343 339 323 335 334 331 334 340 348 345 351 351 355 353 356 357 354
248 242 241 239 231 227 230 229 221 222 211 210 214 218 218 220 226 238 252 244 237 248 257 253 258 267 276 279 279 282 287 292 301 314 316 334 334 327 321 322 331 337 341 342 345 349 352 354 356 356 356 356 352 351
242 239 238 232 229 224 230 222 223 208 199 200 201 202 214 227 230 232 237 245 253 252 248 253 257 266 277 282 287 292 296 307 303 316 317 321 320 309 319 325 328 332 341 345 351 351 355 356 355 355 355 352 349 349
237 235 233 228 224 218 218 225 200 196 187 187 194 213 223 224 213 216 242 242 246 251 255 253 259 268 278 285 293 305 306 314 314 319 323 321 315 310 314 324 331 332 337 354 351 345 349 349 351 351 350 350 349 346
234 231 229 228 223 216 214 204 179 182 180 203 209 219 218 208 226 235 237 237 242 246 248 249 257 267 280 285 295 301 315 320 318 322 323 328 327 330 332 321 334 347 351 350 353 354 353 353 353 351 347 347 347 346
229 227 227 225 221 216 214 177 172 195 201 202 207 207 207 222 233 233 233 238 243 242 245 245 254 270 280 289 298 303 308 316 316 328 324 325 330 338 350 355 353 354 353 355 356 352 353 355 353 350 347 348 348 345
223 222 222 224 222 215 204 179 187 189 187 196 210 214 220 224 228 230 227 234 236 240 240 244 253 273 281 289 299 304 307 311 326 321 322 323 334 348 2 3 11 23 23 13 2 355 353 351 351 351 350 349 346 345
219 219 221 221 214 213 170 174 185 189 194 209 212 214 222 226 233 237 228 230 238 237 198 221 260 273 279 283 297 304 313 322 318 319 320 330 343 6 4 8 21 22 15 6 2 358 357 355 352 351 350 349 348 347
215 216 218 216 216 201 176 168 184 191 205 211 219 222 225 232 233 233 225 224 234 203 201 241 274 281 281 289 298 309 313 314 320 322 334 349 10 18 16 19 22 13 6 2 359 355 354 351 349 348 350 351 350 350
213 213 218 213 209 185 176 174 190 200 214 216 228 228 226 226 228 228 227 219 214 195 224 262 272 278 279 291 294 299 308 311 322 330 345 8 28 22 18 24 12 5 1 359 355 352 350 348 349 351 352 352 354 356
210 213 212 208 194 170 170 181 198 210 218 222 225 233 227 230 228 227 226 227 199 202 239 263 265 272 287 286 291 302 302 317 329 341 356 30 33 24 21 12 4 1 356 352 350 350 348 349 353 354 352 356 358 0
212 209 200 187 168 167 186 202 212 216 218 221 220 225 230 232 222 223 229 197 214 232 245 262 276 271 276 284 294 305 314 330 338 355 35 33 24 17 6 4 359 353 349 349 350 350 352 355 354 354 358 1 2 3
210 210 188 170 179 183 201 214 220 217 220 217 217 224 228 227 231 228 212 214 233 241 243 263 273 276 281 292 303 316 325 332 348 6 23 15 6 357 355 355 350 350 351 353 354 354 354 358 1 3 4 4 1 0
186 173 177 179 192 207 214 217 218 217 214 215 217 219 226 228 224 215 212 228 231 241 259 266 274 286 296 308 317 321 334 8 38 28 5 354 351 352 351 351 352 354 355 356 355 356 3 7 8 7 7 5 0 357
173 178 173 183 198 208 216 212 215 217 213 215 211 219 223 224 221 217 226 235 239 250 261 274 277 288 305 317 324 350 32 63 24 4 353 347 349 354 357 358 359 359 359 0 360 5 9 8 10 11 7 3 359 357
187 185 191 197 201 214 222 222 213 211 215 211 215 221 220 224 225 227 232 239 248 255 264 270 279 290 303 313 323 338 59 358 354 349 350 351 353 358 360 2 1 0 2 1 6 8 12 14 12 10 5 0 360 2
181 190 198 205 211 219 213 211 209 214 214 212 218 221 225 230 230 229 238 246 251 256 254 273 278 289 300 313 326 320 319 327 329 336 341 348 356 358 359 359 3 2 3 7 13 15 17 16 13 8 6 6 7 9
192 198 203 209 216 215 209 214 215 215 215 215 221 225 227 232 227 237 241 245 249 250 250 257 260 275 294 300 293 293 307 318 327 332 340 351 354 355 358 3 6 8 9 17 19 22 19 15 16 14 15 17 19 23
197 206 211 213 216 210 211 210 213 216 210 216 221 229 229 232 236 238 242 245 247 249 248 250 252 254 268 280 290 295 308 314 320 328 344 354 355 359 4 6 6 7 17 18 23 22 17 19 20 22 28 31 36 39
199 210 210 211 208 209 212 210 214 211 205 219 225 229 233 235 235 245 244 245 247 247 237 228 231 251 272 282 280 288 297 314 332 341 348 358 2 3 5 2 1 4 23 29 29 22 18 19 21 27 34 33 34 36
204 209 213 216 212 209 211 215 206 211 214 225 222 227 234 240 239 247 253 246 247 254 250 235 233 232 242 262 296 310 320 23 347 349 359 11 10 5 2 1 2 14 45 38 30 25 18 17 19 22 23 20 18 21
211 211 205 204 208 210 209 208 216 220 227 228 220 230 233 243 245 246 246 244 253 261 260 254 255 253 266 191 147 100 70 37 23 18 10 3 3 8 12 21 32 48 48 37 27 22 18 18 20 25 22 18 16 18
210 201 200 198 203 210 213 220 226 228 224 217 226 231 242 247 246 246 248 248 250 217 176 165 277 330 66 114 114 111 113 87 25 358 358 356 357 357 19 38 48 47 42 31 28 21 19 16 16 23 25 23 23 22
197 202 202 205 209 215 219 226 220 216 219 227 234 234 240 246 253 255 230 214 195 174 154 135 128 123 124 127 128 68 346 2 349 347 348 349 353 8 42 49 45 40 35 26 21 9 10 13 15 18 18 21 23 23
204 205 205 212 216 216 210 201 204 215 230 235 236 228 234 243 256 259 252 251 200 161 141 140 128 118 122 119 126 102 292 297 320 341 349 352 4 28 61 61 51 41 32 23 25 6 7 13 14 13 13 17 21 23
207 208 206 203 200 201 197 208 221 220 227 226 234 237 233 232 244 250 256 251 219 200 203 145 139 146 201 326 333 331 330 329 309 328 346 355 10 29 67 72 57 38 27 22 22 6 2 12 15 11 11 14 17 19
187 179 177 188 201 209 213 214 223 226 236 237 241 245 247 261 257 259 264 264 262 269 275 277 296 304 298 287 310 318 328 338 351 16 21 27 40 65 70 57 43 31 26 21 21 6 357 5 12 11 10 10 12 14